Time,TemperatureF,DewpointF,PressureIn,WindDirection,WindDirectionDegrees,WindSpeedMPH,WindSpeedGustMPH,Humidity,HourlyPrecipIn,Conditions,Clouds,dailyrainin,SoftwareType,DateUTC
2013-05-08 00:00:00,54.0,48.6,29.81,SSW,203,0.0,1.1,82,0.00,,,0.00,WUHU216HW,2013-05-08 07:00:00,
2013-05-08 00:05:00,53.8,48.2,29.81,SSW,203,0.0,1.1,81,0.00,,,0.00,WUHU216HW,2013-05-08 07:05:00,
2013-05-08 00:10:00,53.6,48.3,29.81,South,180,0.0,1.3,82,0.00,,,0.00,WUHU216HW,2013-05-08 07:10:00,
2013-05-08 00:15:00,53.6,48.3,29.81,SSE,158,0.4,1.3,82,0.00,,,0.00,WUHU216HW,2013-05-08 07:15:00,
2013-05-08 00:20:00,53.4,48.1,29.81,South,176,0.5,1.1,82,0.00,,,0.00,Cumulus v1.9.2,2013-05-08 07:20:00,
2013-05-08 00:25:00,53.2,48.2,29.81,South,170,0.7,1.1,83,0.00,,,0.00,Cumulus v1.9.2,2013-05-08 07:25:00,
2013-05-08 00:30:00,53.1,48.1,29.81,SSE,158,0.7,0.7,83,0.00,,,0.00,WUHU216HW,2013-05-08 07:30:00,
2013-05-08 00:35:00,52.9,47.6,29.81,SSE,158,0.0,0.7,82,0.00,,,0.00,WUHU216HW,2013-05-08 07:35:00,
2013-05-08 00:40:00,52.9,47.9,29.82,SSE,158,0.4,0.4,83,0.00,,,0.00,WUHU216HW,2013-05-08 07:40:00,
2013-05-08 00:45:00,52.7,47.4,29.82,SSE,156,0.1,0.4,82,0.00,,,0.00,Cumulus v1.9.2,2013-05-08 07:45:00,
2013-05-08 00:50:00,52.7,47.7,29.82,SSE,158,0.0,0.0,83,0.00,,,0.00,WUHU216HW,2013-05-08 07:50:00,
2013-05-08 00:55:00,52.6,47.3,29.82,SSE,158,0.0,0.0,82,0.00,,,0.00,WUHU216HW,2013-05-08 07:55:00,
2013-05-08 01:00:00,52.3,47.3,29.82,North,0,0.0,0.0,83,0.00,,,0.00,Cumulus v1.9.2,2013-05-08 08:00:00,
2013-05-08 01:05:00,52.2,46.9,29.82,SSE,158,0.0,0.0,82,0.00,,,0.00,WUHU216HW,2013-05-08 08:05:00,
2013-05-08 01:10:00,52.2,47.2,29.83,SSE,158,0.0,1.1,83,0.00,,,0.00,WUHU216HW,2013-05-08 08:10:00,
2013-05-08 01:15:00,52.2,47.2,29.83,SE,143,0.4,1.1,83,0.00,,,0.00,Cumulus v1.9.2,2013-05-08 08:15:00,
2013-05-08 01:20:00,52.0,47.4,29.83,SSW,203,0.0,0.4,84,0.00,,,0.00,WUHU216HW,2013-05-08 08:20:00,
2013-05-08 01:25:00,52.0,47.0,29.83,SW,225,0.0,0.2,83,0.00,,,0.00,WUHU216HW,2013-05-08 08:25:00,
2013-05-08 01:30:00,52.0,47.4,29.83,SSW,203,0.0,0.4,84,0.00,,,0.00,WUHU216HW,2013-05-08 08:30:00,
2013-05-08 01:35:00,51.8,46.8,29.84,SSW,203,0.0,0.4,83,0.00,,,0.00,WUHU216HW,2013-05-08 08:35:00,
2013-05-08 01:40:00,51.7,46.6,29.83,SSE,158,0.4,0.4,83,0.00,,,0.00,WUHU216HW,2013-05-08 08:40:00,
2013-05-08 01:45:00,51.7,46.6,29.84,SSE,158,0.0,0.4,83,0.00,,,0.00,WUHU216HW,2013-05-08 08:45:00,
2013-05-08 01:50:00,51.5,46.8,29.84,SSE,158,0.0,0.0,84,0.00,,,0.00,WUHU216HW,2013-05-08 08:50:00,
2013-05-08 01:55:00,51.5,47.3,29.84,SSE,158,0.0,0.2,86,0.00,,,0.00,WUHU216HW,2013-05-08 08:55:00,
2013-05-08 02:00:00,51.5,47.3,29.84,South,180,0.7,0.9,86,0.00,,,0.00,WUHU216HW,2013-05-08 09:00:00,
2013-05-08 02:05:00,51.5,47.3,29.84,South,180,0.0,0.9,86,0.00,,,0.00,WUHU216HW,2013-05-08 09:05:00,
2013-05-08 02:10:00,51.5,47.3,29.84,South,180,0.0,0.4,86,0.00,,,0.00,WUHU216HW,2013-05-08 09:10:00,
2013-05-08 02:15:00,51.3,46.9,29.84,South,180,0.0,0.4,85,0.00,,,0.00,WUHU216HW,2013-05-08 09:15:00,
2013-05-08 02:20:00,51.1,46.5,29.84,South,180,0.0,0.4,84,0.00,,,0.00,WUHU216HW,2013-05-08 09:20:00,
2013-05-08 02:25:00,50.9,46.8,29.84,South,180,0.0,0.0,86,0.00,,,0.00,WUHU216HW,2013-05-08 09:25:00,
2013-05-08 02:30:00,50.9,46.8,29.84,South,180,0.0,0.0,86,0.00,,,0.00,WUHU216HW,2013-05-08 09:30:00,
2013-05-08 02:35:00,50.8,46.4,29.84,South,180,0.0,0.2,85,0.00,,,0.00,WUHU216HW,2013-05-08 09:35:00,
2013-05-08 02:40:00,50.8,46.6,29.84,South,180,0.0,0.4,86,0.00,,,0.00,WUHU216HW,2013-05-08 09:40:00,
2013-05-08 02:45:00,50.9,46.8,29.84,South,180,0.0,0.7,86,0.00,,,0.00,WUHU216HW,2013-05-08 09:45:00,
2013-05-08 02:50:00,51.1,47.4,29.85,South,180,1.1,1.1,87,0.00,,,0.00,WUHU216HW,2013-05-08 09:50:00,
2013-05-08 02:55:00,51.3,47.8,29.85,SSW,203,2.0,2.0,88,0.00,,,0.00,WUHU216HW,2013-05-08 09:55:00,
2013-05-08 03:00:00,51.5,48.0,29.85,South,180,0.7,2.0,88,0.00,,,0.00,WUHU216HW,2013-05-08 10:00:00,
2013-05-08 03:05:00,51.5,48.0,29.85,SE,135,0.0,1.1,88,0.00,,,0.00,WUHU216HW,2013-05-08 10:05:00,
2013-05-08 03:10:00,51.4,48.0,29.85,South,169,0.5,1.6,88,0.00,,,0.00,Cumulus v1.9.2,2013-05-08 10:10:00,
2013-05-08 03:15:00,51.5,47.7,29.85,SSW,203,0.7,2.2,87,0.00,,,0.00,WUHU216HW,2013-05-08 10:15:00,
2013-05-08 03:20:00,51.5,48.0,29.86,SSW,203,0.0,2.0,88,0.00,,,0.00,WUHU216HW,2013-05-08 10:20:00,
2013-05-08 03:25:00,51.5,48.0,29.86,South,180,1.3,2.0,88,0.00,,,0.00,WUHU216HW,2013-05-08 10:25:00,
2013-05-08 03:30:00,51.7,47.9,29.85,SE,135,0.7,1.3,87,0.00,,,0.00,WUHU216HW,2013-05-08 10:30:00,
2013-05-08 03:35:00,51.7,47.9,29.86,SSW,203,1.1,2.2,87,0.00,,,0.00,WUHU216HW,2013-05-08 10:35:00,
2013-05-08 03:40:00,51.7,47.9,29.86,SSW,203,0.2,2.2,87,0.00,,,0.00,WUHU216HW,2013-05-08 10:40:00,
2013-05-08 03:45:00,51.7,47.9,29.86,South,180,0.0,1.8,87,0.00,,,0.00,WUHU216HW,2013-05-08 10:45:00,
2013-05-08 03:50:00,51.7,47.5,29.86,SSW,203,0.0,1.8,86,0.00,,,0.00,WUHU216HW,2013-05-08 10:50:00,
2013-05-08 03:55:00,51.7,47.5,29.86,SSE,158,0.4,2.0,86,0.00,,,0.00,WUHU216HW,2013-05-08 10:55:00,
2013-05-08 04:00:00,51.7,47.9,29.86,SSW,203,0.4,2.0,87,0.00,,,0.00,WUHU216HW,2013-05-08 11:00:00,
2013-05-08 04:05:00,51.7,47.9,29.86,SSW,203,0.0,1.1,87,0.00,,,0.00,WUHU216HW,2013-05-08 11:05:00,
2013-05-08 04:10:00,51.6,47.9,29.86,SSW,203,0.9,2.2,87,0.00,,,0.00,Cumulus v1.9.2,2013-05-08 11:10:00,
2013-05-08 04:15:00,51.7,47.9,29.86,SSW,203,0.2,2.2,87,0.00,,,0.00,WUHU216HW,2013-05-08 11:15:00,
2013-05-08 04:20:00,51.5,47.7,29.86,South,180,0.2,1.6,87,0.00,,,0.00,WUHU216HW,2013-05-08 11:20:00,
2013-05-08 04:25:00,51.7,47.9,29.86,SSW,203,0.7,1.6,87,0.00,,,0.00,WUHU216HW,2013-05-08 11:25:00,
2013-05-08 04:30:00,51.7,47.5,29.86,South,180,0.4,0.7,86,0.00,,,0.00,WUHU216HW,2013-05-08 11:30:00,
2013-05-08 04:35:00,51.8,47.7,29.86,South,180,0.0,0.9,86,0.00,,,0.00,WUHU216HW,2013-05-08 11:35:00,
2013-05-08 04:40:00,51.8,47.7,29.86,South,180,0.0,0.9,86,0.00,,,0.00,WUHU216HW,2013-05-08 11:40:00,
2013-05-08 04:45:00,51.7,47.5,29.86,South,180,0.2,1.1,86,0.00,,,0.00,WUHU216HW,2013-05-08 11:45:00,
2013-05-08 04:50:00,51.7,47.5,29.87,WSW,248,0.2,1.1,86,0.00,,,0.00,WUHU216HW,2013-05-08 11:50:00,
2013-05-08 04:55:00,51.7,47.5,29.87,SW,225,0.0,0.9,86,0.00,,,0.00,WUHU216HW,2013-05-08 11:55:00,
2013-05-08 05:00:00,51.6,47.6,29.87,SSW,211,0.8,1.8,86,0.00,,,0.00,Cumulus v1.9.2,2013-05-08 12:00:00,
2013-05-08 05:05:00,51.8,48.1,29.87,SSE,158,0.0,1.8,87,0.00,,,0.00,WUHU216HW,2013-05-08 12:05:00,
2013-05-08 05:10:00,51.7,47.9,29.87,SSW,203,0.0,0.9,87,0.00,,,0.00,WUHU216HW,2013-05-08 12:10:00,
2013-05-08 05:15:00,51.8,47.7,29.87,SSW,203,0.2,0.9,86,0.00,,,0.00,WUHU216HW,2013-05-08 12:15:00,
2013-05-08 05:20:00,51.8,47.7,29.87,SSE,158,0.0,0.9,86,0.00,,,0.00,WUHU216HW,2013-05-08 12:20:00,
2013-05-08 05:25:00,51.7,48.2,29.87,SE,135,0.7,1.1,88,0.00,,,0.00,WUHU216HW,2013-05-08 12:25:00,
2013-05-08 05:30:00,51.5,48.0,29.87,SSW,203,0.0,1.1,88,0.00,,,0.00,WUHU216HW,2013-05-08 12:30:00,
2013-05-08 05:35:00,51.5,48.3,29.87,SSW,203,0.4,1.3,89,0.00,,,0.00,WUHU216HW,2013-05-08 12:35:00,
2013-05-08 05:39:00,51.5,48.0,29.87,SSW,203,0.0,1.3,88,0.00,,,0.00,WUHU216HW,2013-05-08 12:39:00,
2013-05-08 05:44:00,51.5,48.0,29.87,SSW,203,0.0,0.7,88,0.00,,,0.00,WUHU216HW,2013-05-08 12:44:00,
2013-05-08 05:49:00,51.4,48.0,29.88,SSW,203,0.0,0.4,88,0.00,,,0.00,Cumulus v1.9.2,2013-05-08 12:49:00,
2013-05-08 05:54:00,51.3,47.8,29.88,SSW,203,0.9,0.9,88,0.00,,,0.00,WUHU216HW,2013-05-08 12:54:00,
2013-05-08 05:59:00,51.3,47.8,29.88,SSW,203,0.0,0.9,88,0.00,,,0.00,WUHU216HW,2013-05-08 12:59:00,
2013-05-08 06:04:00,51.5,48.0,29.87,SSW,203,0.0,0.4,88,0.00,,,0.00,WUHU216HW,2013-05-08 13:04:00,
2013-05-08 06:09:00,51.4,48.0,29.88,SSW,203,0.1,0.4,88,0.00,,,0.00,Cumulus v1.9.2,2013-05-08 13:09:00,
2013-05-08 06:14:00,51.3,48.2,29.88,SSW,203,0.0,0.0,89,0.00,,,0.00,WUHU216HW,2013-05-08 13:14:00,
2013-05-08 06:19:00,51.3,48.2,29.88,SSW,203,0.2,0.2,89,0.00,,,0.00,WUHU216HW,2013-05-08 13:19:00,
2013-05-08 06:24:00,51.3,48.2,29.88,SSW,203,0.0,0.2,89,0.00,,,0.00,WUHU216HW,2013-05-08 13:24:00,
2013-05-08 06:29:00,51.5,48.0,29.88,SSW,203,0.0,0.2,88,0.00,,,0.00,WUHU216HW,2013-05-08 13:29:00,
2013-05-08 06:34:00,51.5,48.0,29.89,South,180,0.4,0.4,88,0.00,,,0.00,WUHU216HW,2013-05-08 13:34:00,
2013-05-08 06:39:00,51.8,48.3,29.89,SSW,203,0.0,0.4,88,0.00,,,0.00,WUHU216HW,2013-05-08 13:39:00,
2013-05-08 06:44:00,51.6,48.2,29.89,North,0,0.1,0.0,88,0.00,,,0.00,Cumulus v1.9.2,2013-05-08 13:44:00,
2013-05-08 06:49:00,51.8,48.4,29.89,North,0,0.0,0.0,88,0.00,,,0.00,Cumulus v1.9.2,2013-05-08 13:49:00,
2013-05-08 06:54:00,51.8,48.3,29.89,South,180,0.0,0.4,88,0.00,,,0.00,WUHU216HW,2013-05-08 13:54:00,
2013-05-08 06:59:00,51.8,48.7,29.89,SSW,203,0.0,0.4,89,0.00,,,0.00,WUHU216HW,2013-05-08 13:59:00,
2013-05-08 07:04:00,51.8,48.3,29.89,SSW,203,0.2,0.4,88,0.00,,,0.00,WUHU216HW,2013-05-08 14:04:00,
2013-05-08 07:09:00,51.8,48.3,29.89,SSW,203,0.4,0.4,88,0.00,,,0.00,WUHU216HW,2013-05-08 14:09:00,
2013-05-08 07:14:00,52.0,48.5,29.89,SSW,198,0.4,1.1,88,0.00,,,0.00,Cumulus v1.9.2,2013-05-08 14:14:00,
2013-05-08 07:19:00,52.2,49.1,29.89,WSW,248,0.9,1.1,89,0.00,,,0.00,WUHU216HW,2013-05-08 14:19:00,
2013-05-08 07:24:00,52.2,49.1,29.90,South,180,0.2,1.1,89,0.00,,,0.00,WUHU216HW,2013-05-08 14:24:00,
2013-05-08 07:29:00,52.2,49.1,29.90,SW,225,0.0,1.1,89,0.00,,,0.00,WUHU216HW,2013-05-08 14:29:00,
2013-05-08 07:34:00,52.4,49.2,29.90,SW,225,0.0,0.7,89,0.00,,,0.00,WUHU216HW,2013-05-08 14:34:00,
2013-05-08 07:39:00,52.7,49.2,29.90,SW,225,0.0,0.0,88,0.00,,,0.00,WUHU216HW,2013-05-08 14:39:00,
2013-05-08 07:44:00,52.7,49.2,29.90,South,180,0.0,0.4,88,0.00,,,0.00,WUHU216HW,2013-05-08 14:44:00,
2013-05-08 07:49:00,52.7,49.2,29.90,South,180,0.4,0.4,88,0.00,,,0.00,WUHU216HW,2013-05-08 14:49:00,
2013-05-08 07:54:00,52.9,49.2,29.90,South,180,0.0,0.4,87,0.00,,,0.00,WUHU216HW,2013-05-08 14:54:00,
2013-05-08 07:59:00,52.9,49.2,29.90,East,90,0.4,0.4,87,0.00,,,0.00,WUHU216HW,2013-05-08 14:59:00,
2013-05-08 08:04:00,52.9,49.2,29.90,SSW,203,1.8,1.8,87,0.00,,,0.00,WUHU216HW,2013-05-08 15:04:00,
2013-05-08 08:09:00,52.9,49.4,29.90,SSW,203,0.9,1.8,88,0.00,,,0.00,Cumulus v1.9.2,2013-05-08 15:09:00,
2013-05-08 08:14:00,52.7,49.6,29.90,SSW,203,0.0,1.6,89,0.00,,,0.00,WUHU216HW,2013-05-08 15:14:00,
2013-05-08 08:19:00,52.7,49.2,29.91,SSW,203,0.2,0.4,88,0.00,,,0.00,Cumulus v1.9.2,2013-05-08 15:19:00,
2013-05-08 08:24:00,52.9,49.4,29.91,SW,225,0.0,1.1,88,0.00,,,0.00,WUHU216HW,2013-05-08 15:24:00,
2013-05-08 08:29:00,53.2,49.8,29.91,SSW,199,0.6,1.8,88,0.00,,,0.00,Cumulus v1.9.2,2013-05-08 15:29:00,
2013-05-08 08:34:00,53.3,49.8,29.91,South,180,0.7,1.8,88,0.00,,,0.00,WUHU216HW,2013-05-08 15:34:00,
2013-05-08 08:39:00,53.4,49.6,29.91,SSW,196,0.5,0.7,87,0.00,,,0.00,Cumulus v1.9.2,2013-05-08 15:39:00,
2013-05-08 08:44:00,53.6,49.5,29.91,SSW,203,0.7,0.7,86,0.00,,,0.00,WUHU216HW,2013-05-08 15:44:00,
2013-05-08 08:49:00,53.6,49.5,29.91,South,180,0.2,1.6,86,0.00,,,0.00,WUHU216HW,2013-05-08 15:49:00,
2013-05-08 08:54:00,53.6,49.5,29.91,South,180,0.4,1.6,86,0.00,,,0.00,WUHU216HW,2013-05-08 15:54:00,
2013-05-08 08:59:00,54.0,49.9,29.91,SSW,203,0.0,1.3,86,0.00,,,0.00,WUHU216HW,2013-05-08 15:59:00,
2013-05-08 09:04:00,54.1,49.7,29.91,SSW,201,0.6,1.3,85,0.00,,,0.00,Cumulus v1.9.2,2013-05-08 16:04:00,
2013-05-08 09:09:00,54.4,50.0,29.91,SSW,203,0.2,0.9,85,0.00,,,0.00,WUHU216HW,2013-05-08 16:09:00,
2013-05-08 09:14:00,53.8,49.4,29.91,SW,225,0.7,0.9,85,0.00,,,0.00,WUHU216HW,2013-05-08 16:14:00,
2013-05-08 09:19:00,53.5,49.3,29.92,SW,225,0.0,0.9,86,0.00,,,0.00,WUHU216HW,2013-05-08 16:19:00,
2013-05-08 09:24:00,52.9,49.1,29.92,SSW,206,0.6,0.9,87,0.00,,,0.00,Cumulus v1.9.2,2013-05-08 16:24:00,
2013-05-08 09:29:00,52.9,49.8,29.92,SSE,158,0.2,0.9,89,0.00,,,0.00,WUHU216HW,2013-05-08 16:29:00,
2013-05-08 09:34:00,52.5,49.4,29.92,South,171,0.6,1.1,89,0.00,,,0.00,Cumulus v1.9.2,2013-05-08 16:34:00,
2013-05-08 09:39:00,52.7,49.6,29.92,SW,225,0.9,1.1,89,0.00,,,0.00,WUHU216HW,2013-05-08 16:39:00,
2013-05-08 09:44:00,52.9,49.8,29.92,SSW,203,0.0,1.1,89,0.00,,,0.00,WUHU216HW,2013-05-08 16:44:00,
2013-05-08 09:49:00,52.9,49.8,29.92,SSE,158,1.1,1.1,89,0.00,,,0.00,WUHU216HW,2013-05-08 16:49:00,
2013-05-08 09:54:00,52.9,49.8,29.92,WNW,293,0.4,1.1,89,0.00,,,0.00,WUHU216HW,2013-05-08 16:54:00,
2013-05-08 09:59:00,52.9,49.8,29.92,SSE,158,0.0,1.1,89,0.00,,,0.00,WUHU216HW,2013-05-08 16:59:00,
2013-05-08 10:04:00,53.3,50.1,29.92,SSW,203,0.0,0.9,89,0.00,,,0.00,WUHU216HW,2013-05-08 17:04:00,
2013-05-08 10:09:00,53.5,50.0,29.92,SSE,158,0.0,1.8,88,0.00,,,0.00,WUHU216HW,2013-05-08 17:09:00,
2013-05-08 10:14:00,53.6,50.1,29.92,West,270,0.2,1.8,88,0.00,,,0.00,WUHU216HW,2013-05-08 17:14:00,
2013-05-08 10:19:00,53.6,49.9,29.92,South,180,0.2,1.6,87,0.00,,,0.00,WUHU216HW,2013-05-08 17:19:00,
2013-05-08 10:24:00,53.6,49.5,29.92,South,180,0.0,1.6,86,0.00,,,0.00,WUHU216HW,2013-05-08 17:24:00,
2013-05-08 10:29:00,54.0,49.9,29.92,WSW,248,0.0,1.3,86,0.00,,,0.00,WUHU216HW,2013-05-08 17:29:00,
2013-05-08 10:34:00,54.4,50.0,29.93,SSW,203,0.0,1.3,85,0.00,,,0.00,WUHU216HW,2013-05-08 17:34:00,
2013-05-08 10:39:00,54.4,50.0,29.92,WSW,248,0.0,0.4,85,0.00,,,0.00,WUHU216HW,2013-05-08 17:39:00,
2013-05-08 10:44:00,54.2,49.4,29.93,West,270,0.0,0.7,84,0.00,,,0.00,WUHU216HW,2013-05-08 17:44:00,
2013-05-08 10:49:00,54.0,49.6,29.93,SSW,198,0.4,1.1,85,0.00,,,0.00,Cumulus v1.9.2,2013-05-08 17:49:00,
2013-05-08 10:54:00,53.8,49.1,29.93,SW,225,0.0,1.1,84,0.00,,,0.00,WUHU216HW,2013-05-08 17:54:00,
2013-05-08 10:59:00,54.0,49.2,29.93,SW,225,0.7,1.1,84,0.00,,,0.00,WUHU216HW,2013-05-08 17:59:00,
2013-05-08 11:04:00,54.2,49.4,29.93,WSW,248,0.0,1.1,84,0.00,,,0.00,WUHU216HW,2013-05-08 18:04:00,
2013-05-08 11:09:00,54.4,49.6,29.93,WSW,248,0.7,1.1,84,0.00,,,0.00,WUHU216HW,2013-05-08 18:09:00,
2013-05-08 11:14:00,54.4,49.3,29.93,SW,225,0.0,1.1,83,0.00,,,0.00,WUHU216HW,2013-05-08 18:14:00,
2013-05-08 11:19:00,54.4,49.3,29.93,South,180,1.1,1.1,83,0.00,,,0.00,WUHU216HW,2013-05-08 18:19:00,
2013-05-08 11:24:00,54.7,49.3,29.93,SSW,203,0.2,1.1,82,0.00,,,0.00,WUHU216HW,2013-05-08 18:24:00,
2013-05-08 11:29:00,55.0,49.6,29.94,SSW,192,0.6,1.1,82,0.00,,,0.00,Cumulus v1.9.2,2013-05-08 18:29:00,
2013-05-08 11:34:00,55.3,49.5,29.94,NNE,23,0.4,1.1,81,0.00,,,0.00,WUHU216HW,2013-05-08 18:34:00,
2013-05-08 11:39:00,55.4,49.7,29.94,SSE,158,1.8,1.8,81,0.00,,,0.00,WUHU216HW,2013-05-08 18:39:00,
2013-05-08 11:44:00,55.3,49.5,29.94,SSW,203,0.2,1.8,81,0.00,,,0.00,WUHU216HW,2013-05-08 18:44:00,
2013-05-08 11:49:00,55.4,49.3,29.94,NNW,338,0.0,1.1,80,0.00,,,0.00,WUHU216HW,2013-05-08 18:49:00,
2013-05-08 11:54:00,55.8,50.1,29.94,SSW,203,0.0,1.1,81,0.00,,,0.00,WUHU216HW,2013-05-08 18:54:00,
2013-05-08 11:59:00,56.5,50.4,29.94,SSW,203,0.0,1.1,80,0.00,,,0.00,WUHU216HW,2013-05-08 18:59:00,
2013-05-08 12:04:00,56.2,50.0,29.94,SSW,203,1.1,1.1,80,0.00,,,0.00,WUHU216HW,2013-05-08 19:04:00,
2013-05-08 12:09:00,56.3,50.2,29.94,SSW,200,0.5,1.1,80,0.00,,,0.00,Cumulus v1.9.2,2013-05-08 19:09:00,
2013-05-08 12:14:00,56.7,50.2,29.94,SSW,201,0.6,1.1,79,0.00,,,0.00,Cumulus v1.9.2,2013-05-08 19:14:00,
2013-05-08 12:19:00,57.2,50.4,29.93,SW,225,0.9,1.1,78,0.00,,,0.00,WUHU216HW,2013-05-08 19:19:00,
2013-05-08 12:24:00,57.0,49.9,29.93,SSW,195,0.6,2.0,77,0.00,,,0.00,Cumulus v1.9.2,2013-05-08 19:24:00,
2013-05-08 12:29:00,56.7,49.9,29.93,SSE,158,0.7,2.5,78,0.00,,,0.00,WUHU216HW,2013-05-08 19:29:00,
2013-05-08 12:34:00,56.8,50.1,29.93,South,179,1.1,2.5,78,0.00,,,0.00,Cumulus v1.9.2,2013-05-08 19:34:00,
2013-05-08 12:39:00,57.1,49.5,29.93,East,90,0.4,2.0,76,0.00,,,0.00,WUHU216HW,2013-05-08 19:39:00,
2013-05-08 12:44:00,57.4,49.9,29.93,SSW,203,0.7,2.0,76,0.00,,,0.00,WUHU216HW,2013-05-08 19:44:00,
2013-05-08 12:49:00,58.0,50.4,29.93,SSE,158,0.4,0.9,76,0.00,,,0.00,WUHU216HW,2013-05-08 19:49:00,
2013-05-08 12:54:00,57.9,50.0,29.93,SSW,213,0.5,1.1,75,0.00,,,0.00,Cumulus v1.9.2,2013-05-08 19:54:00,
2013-05-08 12:59:00,58.3,50.0,29.93,NNE,23,1.1,1.1,74,0.00,,,0.00,WUHU216HW,2013-05-08 19:59:00,
2013-05-08 13:04:00,58.5,50.2,29.93,NW,315,0.0,1.1,74,0.00,,,0.00,WUHU216HW,2013-05-08 20:04:00,
2013-05-08 13:09:00,58.7,50.4,29.93,SSW,203,1.8,2.2,74,0.00,,,0.00,WUHU216HW,2013-05-08 20:09:00,
2013-05-08 13:14:00,58.6,50.0,29.93,South,184,1.1,2.2,73,0.00,,,0.00,Cumulus v1.9.2,2013-05-08 20:14:00,
2013-05-08 13:19:00,58.5,49.9,29.93,SW,225,1.1,2.2,73,0.00,,,0.00,WUHU216HW,2013-05-08 20:19:00,
2013-05-08 13:24:00,58.6,50.0,29.93,SSW,205,0.8,2.2,73,0.00,,,0.00,Cumulus v1.9.2,2013-05-08 20:24:00,
2013-05-08 13:29:00,59.2,50.6,29.93,SSE,158,0.7,1.8,73,0.00,,,0.00,WUHU216HW,2013-05-08 20:29:00,
2013-05-08 13:34:00,60.4,51.4,29.93,SSE,152,0.7,2.5,72,0.00,,,0.00,Cumulus v1.9.2,2013-05-08 20:34:00,
2013-05-08 13:39:00,60.8,51.0,29.93,SSE,162,0.8,2.5,70,0.00,,,0.00,Cumulus v1.9.2,2013-05-08 20:39:00,
2013-05-08 13:44:00,60.7,50.9,29.93,SSE,158,2.9,2.9,70,0.00,,,0.00,WUHU216HW,2013-05-08 20:44:00,
2013-05-08 13:49:00,60.7,50.5,29.93,SSW,203,1.1,2.9,69,0.00,,,0.00,WUHU216HW,2013-05-08 20:49:00,
2013-05-08 13:54:00,60.8,50.7,29.93,SSW,203,0.0,1.8,69,0.00,,,0.00,WUHU216HW,2013-05-08 20:54:00,
2013-05-08 13:59:00,60.8,51.1,29.93,SSW,203,1.1,1.8,70,0.00,,,0.00,WUHU216HW,2013-05-08 20:59:00,
2013-05-08 14:03:00,61.6,50.9,29.93,SSW,203,0.4,3.8,68,0.00,,,0.00,WUHU216HW,2013-05-08 21:03:00,
2013-05-08 14:08:00,61.7,51.1,29.93,North,0,0.4,3.8,68,0.00,,,0.00,WUHU216HW,2013-05-08 21:08:00,
2013-05-08 14:13:00,61.7,51.5,29.93,SSE,158,0.0,0.7,69,0.00,,,0.00,WUHU216HW,2013-05-08 21:13:00,
2013-05-08 14:18:00,64.1,53.7,29.93,ENE,68,0.2,0.7,69,0.00,,,0.00,WUHU216HW,2013-05-08 21:18:00,
2013-05-08 14:23:00,63.7,51.3,29.93,SSW,203,1.8,1.8,64,0.00,,,0.00,WUHU216HW,2013-05-08 21:23:00,
2013-05-08 14:28:00,64.4,52.4,29.93,SW,223,0.8,1.8,65,0.00,,,0.00,Cumulus v1.9.2,2013-05-08 21:28:00,
2013-05-08 14:33:00,64.1,52.0,29.93,SW,225,1.1,2.0,65,0.00,,,0.00,WUHU216HW,2013-05-08 21:33:00,
2013-05-08 14:38:00,64.6,51.7,29.93,WNW,293,0.2,1.8,63,0.00,,,0.00,WUHU216HW,2013-05-08 21:38:00,
2013-05-08 14:43:00,65.3,52.8,29.93,SW,225,0.0,1.6,64,0.00,,,0.00,WUHU216HW,2013-05-08 21:43:00,
2013-05-08 14:48:00,67.0,54.4,29.93,SW,225,0.0,1.1,64,0.00,,,0.00,WUHU216HW,2013-05-08 21:48:00,
2013-05-08 14:53:00,68.6,54.2,29.93,South,180,1.1,1.8,60,0.00,,,0.00,WUHU216HW,2013-05-08 21:53:00,
2013-05-08 14:58:00,68.4,51.6,29.93,SSE,158,1.1,1.8,55,0.00,,,0.00,WUHU216HW,2013-05-08 21:58:00,
2013-05-08 15:03:00,69.7,54.3,29.93,SW,225,0.9,3.1,58,0.00,,,0.00,WUHU216HW,2013-05-08 22:03:00,
2013-05-08 15:08:00,69.5,53.1,29.93,SW,225,1.3,3.1,56,0.00,,,0.00,WUHU216HW,2013-05-08 22:08:00,
2013-05-08 15:13:00,72.1,55.1,29.93,SSW,202,1.3,1.8,55,0.00,,,0.00,Cumulus v1.9.2,2013-05-08 22:13:00,
2013-05-08 15:18:00,74.0,55.2,29.92,WSW,248,1.8,1.8,52,0.00,,,0.00,WUHU216HW,2013-05-08 22:18:00,
2013-05-08 15:23:00,72.0,52.8,29.92,SSW,203,1.3,2.5,51,0.00,,,0.00,WUHU216HW,2013-05-08 22:23:00,
2013-05-08 15:28:00,70.2,52.2,29.92,SSW,203,0.4,2.5,53,0.00,,,0.00,WUHU216HW,2013-05-08 22:28:00,
2013-05-08 15:33:00,71.6,53.0,29.92,SSW,203,1.1,1.8,52,0.00,,,0.00,WUHU216HW,2013-05-08 22:33:00,
2013-05-08 15:38:00,71.6,53.0,29.92,NE,45,0.0,2.5,52,0.00,,,0.00,WUHU216HW,2013-05-08 22:38:00,
2013-05-08 15:43:00,72.5,52.2,29.92,SSW,203,1.6,3.4,49,0.00,,,0.00,Cumulus v1.9.2,2013-05-08 22:43:00,
2013-05-08 15:48:00,70.0,52.1,29.91,SW,225,0.7,3.4,53,0.00,,,0.00,WUHU216HW,2013-05-08 22:48:00,
2013-05-08 15:53:00,71.3,52.2,29.91,North,0,1.3,2.2,51,0.00,,,0.00,WUHU216HW,2013-05-08 22:53:00,
2013-05-08 15:58:00,71.6,52.0,29.91,NW,312,0.9,1.6,50,0.00,,,0.00,Cumulus v1.9.2,2013-05-08 22:58:00,
2013-05-08 16:03:00,71.3,52.2,29.91,North,0,0.9,1.3,51,0.00,,,0.00,WUHU216HW,2013-05-08 23:03:00,
2013-05-08 16:08:00,72.4,53.6,29.91,West,270,0.9,1.1,52,0.00,,,0.00,WUHU216HW,2013-05-08 23:08:00,
2013-05-08 16:13:00,72.7,52.4,29.91,SSW,203,1.1,1.3,49,0.00,,,0.00,WUHU216HW,2013-05-08 23:13:00,
2013-05-08 16:18:00,72.4,53.2,29.90,SW,225,1.1,2.9,51,0.00,,,0.00,WUHU216HW,2013-05-08 23:18:00,
2013-05-08 16:23:00,74.2,53.7,29.90,SSE,158,0.0,2.9,49,0.00,,,0.00,WUHU216HW,2013-05-08 23:23:00,
2013-05-08 16:28:00,74.2,52.6,29.90,North,0,1.1,4.0,47,0.00,,,0.00,WUHU216HW,2013-05-08 23:28:00,
2013-05-08 16:33:00,73.1,52.1,29.90,NNE,23,0.7,4.0,48,0.00,,,0.00,WUHU216HW,2013-05-08 23:33:00,
2013-05-08 16:38:00,73.0,52.7,29.90,NNW,340,1.3,1.8,49,0.00,,,0.00,Cumulus v1.9.2,2013-05-08 23:38:00,
2013-05-08 16:43:00,73.8,53.4,29.90,SW,225,1.6,1.8,49,0.00,,,0.00,WUHU216HW,2013-05-08 23:43:00,
2013-05-08 16:48:00,73.1,53.3,29.90,SSW,203,0.7,3.1,50,0.00,,,0.00,WUHU216HW,2013-05-08 23:48:00,
2013-05-08 16:53:00,73.4,52.5,29.91,NNW,338,1.1,3.1,48,0.00,,,0.00,WUHU216HW,2013-05-08 23:53:00,
2013-05-08 16:58:00,73.8,52.8,29.90,ENE,68,0.4,1.8,48,0.00,,,0.00,WUHU216HW,2013-05-08 23:58:00,
2013-05-08 17:03:00,74.7,52.5,29.90,North,357,0.8,2.2,46,0.00,,,0.00,Cumulus v1.9.2,2013-05-09 00:03:00,
2013-05-08 17:08:00,74.2,52.6,29.90,NNE,23,1.8,2.2,47,0.00,,,0.00,WUHU216HW,2013-05-09 00:08:00,
2013-05-08 17:13:00,73.8,52.2,29.90,NNE,23,1.6,2.2,47,0.00,,,0.00,WUHU216HW,2013-05-09 00:13:00,
2013-05-08 17:18:00,73.6,52.7,29.90,North,0,0.2,2.2,48,0.00,,,0.00,WUHU216HW,2013-05-09 00:18:00,
2013-05-08 17:23:00,74.1,52.0,29.90,NNE,13,1.2,2.2,46,0.00,,,0.00,Cumulus v1.9.2,2013-05-09 00:23:00,
2013-05-08 17:28:00,73.4,51.8,29.90,North,0,2.7,2.7,47,0.00,,,0.00,WUHU216HW,2013-05-09 00:28:00,
2013-05-08 17:33:00,72.5,52.2,29.90,WSW,248,0.0,2.7,49,0.00,,,0.00,WUHU216HW,2013-05-09 00:33:00,
2013-05-08 17:38:00,73.4,51.8,29.90,NNE,23,1.1,2.5,47,0.00,,,0.00,WUHU216HW,2013-05-09 00:38:00,
2013-05-08 17:43:00,74.2,52.6,29.90,South,180,2.5,2.5,47,0.00,,,0.00,WUHU216HW,2013-05-09 00:43:00,
2013-05-08 17:48:00,74.3,52.1,29.90,NW,315,0.4,2.5,46,0.00,,,0.00,WUHU216HW,2013-05-09 00:48:00,
2013-05-08 17:53:00,74.3,52.1,29.90,WSW,248,0.7,1.1,46,0.00,,,0.00,WUHU216HW,2013-05-09 00:53:00,
2013-05-08 17:58:00,73.8,52.2,29.90,West,270,1.3,2.2,47,0.00,,,0.00,WUHU216HW,2013-05-09 00:58:00,
2013-05-08 18:03:00,74.5,52.3,29.89,NNE,23,0.4,2.2,46,0.00,,,0.00,WUHU216HW,2013-05-09 01:03:00,
2013-05-08 18:08:00,74.9,52.0,29.89,ENE,68,0.4,1.6,45,0.00,,,0.00,WUHU216HW,2013-05-09 01:08:00,
2013-05-08 18:13:00,74.5,52.9,29.89,WSW,251,1.0,1.6,47,0.00,,,0.00,Cumulus v1.9.2,2013-05-09 01:13:00,
2013-05-08 18:18:00,74.3,52.2,29.89,West,275,1.1,1.8,46,0.00,,,0.00,Cumulus v1.9.2,2013-05-09 01:18:00,
2013-05-08 18:23:00,73.8,52.2,29.89,WSW,248,0.7,1.8,47,0.00,,,0.00,WUHU216HW,2013-05-09 01:23:00,
2013-05-08 18:28:00,74.0,53.0,29.89,NE,45,0.4,1.8,48,0.00,,,0.00,WUHU216HW,2013-05-09 01:28:00,
2013-05-08 18:33:00,75.2,53.6,29.89,WSW,252,0.7,1.3,47,0.00,,,0.00,Cumulus v1.9.2,2013-05-09 01:33:00,
2013-05-08 18:38:00,76.3,52.7,29.89,NNW,338,0.4,1.3,44,0.00,,,0.00,WUHU216HW,2013-05-09 01:38:00,
2013-05-08 18:43:00,75.7,52.9,29.89,North,9,0.7,1.3,45,0.00,,,0.00,Cumulus v1.9.2,2013-05-09 01:43:00,
2013-05-08 18:48:00,74.8,52.1,29.88,West,269,0.8,1.1,45,0.00,,,0.00,Cumulus v1.9.2,2013-05-09 01:48:00,
2013-05-08 18:53:00,74.5,52.3,29.88,SSW,203,0.4,1.8,46,0.00,,,0.00,WUHU216HW,2013-05-09 01:53:00,
2013-05-08 18:58:00,74.8,52.7,29.89,SSW,203,0.9,1.8,46,0.00,,,0.00,Cumulus v1.9.2,2013-05-09 01:58:00,
2013-05-08 19:03:00,73.4,51.8,29.89,SSW,203,0.4,1.8,47,0.00,,,0.00,WUHU216HW,2013-05-09 02:03:00,
2013-05-08 19:08:00,73.4,51.8,29.89,SSW,203,0.7,1.8,47,0.00,,,0.00,WUHU216HW,2013-05-09 02:08:00,
2013-05-08 19:13:00,73.1,51.6,29.89,NW,315,0.7,0.9,47,0.00,,,0.00,WUHU216HW,2013-05-09 02:13:00,
2013-05-08 19:18:00,72.7,51.9,29.88,NW,315,0.0,3.1,48,0.00,,,0.00,WUHU216HW,2013-05-09 02:18:00,
2013-05-08 19:23:00,72.7,51.9,29.89,North,0,0.4,3.1,48,0.00,,,0.00,WUHU216HW,2013-05-09 02:23:00,
2013-05-08 19:28:00,72.5,52.2,29.88,SW,227,1.0,1.8,49,0.00,,,0.00,Cumulus v1.9.2,2013-05-09 02:28:00,
2013-05-08 19:33:00,72.0,51.8,29.88,NNW,338,0.4,1.6,49,0.00,,,0.00,WUHU216HW,2013-05-09 02:33:00,
2013-05-08 19:38:00,71.6,52.0,29.88,WNW,293,0.0,1.1,50,0.00,,,0.00,WUHU216HW,2013-05-09 02:38:00,
2013-05-08 19:43:00,70.7,51.8,29.89,SSW,203,0.0,1.6,51,0.00,,,0.00,WUHU216HW,2013-05-09 02:43:00,
2013-05-08 19:48:00,69.3,51.4,29.89,NNW,338,0.4,1.6,53,0.00,,,0.00,WUHU216HW,2013-05-09 02:48:00,
2013-05-08 19:53:00,68.2,51.4,29.88,North,0,0.2,0.9,55,0.00,,,0.00,WUHU216HW,2013-05-09 02:53:00,
2013-05-08 19:58:00,67.7,50.9,29.89,North,0,0.0,0.9,55,0.00,,,0.00,WUHU216HW,2013-05-09 02:58:00,
2013-05-08 20:03:00,67.3,50.6,29.89,North,0,0.0,0.0,55,0.00,,,0.00,WUHU216HW,2013-05-09 03:03:00,
2013-05-08 20:08:00,66.8,50.6,29.89,North,0,0.0,0.0,56,0.00,,,0.00,WUHU216HW,2013-05-09 03:08:00,
2013-05-08 20:13:00,66.6,50.9,29.89,North,0,0.0,0.0,57,0.00,,,0.00,WUHU216HW,2013-05-09 03:13:00,
2013-05-08 20:18:00,66.2,50.0,29.89,North,0,0.0,0.0,56,0.00,,,0.00,WUHU216HW,2013-05-09 03:18:00,
2013-05-08 20:23:00,65.9,49.7,29.89,North,0,0.0,0.0,56,0.00,,,0.00,WUHU216HW,2013-05-09 03:23:00,
2013-05-08 20:28:00,65.5,49.3,29.89,North,0,0.0,0.0,56,0.00,,,0.00,WUHU216HW,2013-05-09 03:28:00,
2013-05-08 20:33:00,65.1,49.0,29.89,North,0,0.0,0.0,56,0.00,,,0.00,Cumulus v1.9.2,2013-05-09 03:33:00,
2013-05-08 20:38:00,64.6,49.0,29.89,North,0,0.0,0.4,57,0.00,,,0.00,WUHU216HW,2013-05-09 03:38:00,
2013-05-08 20:43:00,64.1,49.0,29.89,North,0,0.0,0.4,58,0.00,,,0.00,WUHU216HW,2013-05-09 03:43:00,
2013-05-08 20:48:00,63.7,49.1,29.89,North,1,0.1,0.2,59,0.00,,,0.00,Cumulus v1.9.2,2013-05-09 03:48:00,
2013-05-08 20:53:00,63.0,49.0,29.89,NNE,23,0.2,0.7,60,0.00,,,0.00,WUHU216HW,2013-05-09 03:53:00,
2013-05-08 20:58:00,62.6,48.5,29.89,NNE,32,0.3,1.1,60,0.00,,,0.00,Cumulus v1.9.2,2013-05-09 03:58:00,
2013-05-08 21:01:00,62.2,48.6,29.90,NE,38,0.5,1.1,61,0.00,,,0.00,Cumulus v1.9.2,2013-05-09 04:01:00,
2013-05-08 21:06:00,61.6,48.4,29.90,NE,45,0.0,1.1,62,0.00,,,0.00,WUHU216HW,2013-05-09 04:06:00,
2013-05-08 21:11:00,61.2,48.5,29.90,NE,45,0.0,0.9,63,0.00,,,0.00,WUHU216HW,2013-05-09 04:11:00,
2013-05-08 21:16:00,60.8,48.6,29.90,NE,45,0.0,0.9,64,0.00,,,0.00,WUHU216HW,2013-05-09 04:16:00,
2013-05-08 21:21:00,60.3,48.5,29.90,NE,45,0.2,0.9,65,0.00,,,0.00,WUHU216HW,2013-05-09 04:21:00,
2013-05-08 21:26:00,59.9,47.7,29.90,NE,45,0.0,0.4,64,0.00,,,0.00,WUHU216HW,2013-05-09 04:26:00,
2013-05-08 21:31:00,59.4,47.6,29.90,NE,45,0.0,0.0,65,0.00,,,0.00,WUHU216HW,2013-05-09 04:31:00,
2013-05-08 21:36:00,59.0,47.7,29.90,NE,45,0.0,0.2,66,0.00,,,0.00,WUHU216HW,2013-05-09 04:36:00,
2013-05-08 21:41:00,58.7,47.4,29.90,NE,45,0.4,1.1,66,0.00,,,0.00,WUHU216HW,2013-05-09 04:41:00,
2013-05-08 21:46:00,58.3,47.3,29.91,NE,45,0.0,1.1,67,0.00,,,0.00,WUHU216HW,2013-05-09 04:46:00,
2013-05-08 21:51:00,58.0,47.9,29.91,NE,45,0.0,0.2,69,0.00,,,0.00,WUHU216HW,2013-05-09 04:51:00,
2013-05-08 21:56:00,57.9,47.8,29.91,North,0,0.0,0.0,69,0.00,,,0.00,Cumulus v1.9.2,2013-05-09 04:56:00,
2013-05-08 22:01:00,57.4,47.4,29.91,NE,45,0.0,0.0,69,0.00,,,0.00,WUHU216HW,2013-05-09 05:01:00,
2013-05-08 22:06:00,57.1,47.3,29.91,NE,45,0.0,0.0,70,0.00,,,0.00,WUHU216HW,2013-05-09 05:06:00,
2013-05-08 22:11:00,56.9,47.2,29.91,NE,45,0.0,0.0,70,0.00,,,0.00,WUHU216HW,2013-05-09 05:11:00,
2013-05-08 22:16:00,56.5,47.3,29.91,NE,45,0.0,0.0,71,0.00,,,0.00,WUHU216HW,2013-05-09 05:16:00,
2013-05-08 22:21:00,56.3,47.4,29.91,NE,45,0.0,0.0,72,0.00,,,0.00,WUHU216HW,2013-05-09 05:21:00,
2013-05-08 22:26:00,56.0,47.1,29.92,NE,45,0.0,0.0,72,0.00,,,0.00,WUHU216HW,2013-05-09 05:26:00,
2013-05-08 22:31:00,55.8,47.3,29.91,NE,45,0.0,0.0,73,0.00,,,0.00,WUHU216HW,2013-05-09 05:31:00,
2013-05-08 22:36:00,55.4,46.9,29.92,NE,45,0.0,0.0,73,0.00,,,0.00,WUHU216HW,2013-05-09 05:36:00,
2013-05-08 22:41:00,55.3,47.4,29.92,NE,45,0.0,0.0,75,0.00,,,0.00,WUHU216HW,2013-05-09 05:41:00,
2013-05-08 22:46:00,55.1,47.3,29.92,NE,45,0.0,0.0,75,0.00,,,0.00,WUHU216HW,2013-05-09 05:46:00,
2013-05-08 22:51:00,54.9,47.4,29.92,NE,45,0.0,0.0,76,0.00,,,0.00,WUHU216HW,2013-05-09 05:51:00,
2013-05-08 22:55:00,54.7,47.6,29.92,NE,45,0.0,0.0,77,0.00,,,0.00,WUHU216HW,2013-05-09 05:55:00,
2013-05-08 23:01:00,54.7,47.3,29.92,North,0,0.0,0.0,76,0.00,,,0.00,Cumulus v1.9.2,2013-05-09 06:01:00,
2013-05-08 23:05:00,54.4,46.6,29.92,NE,45,0.0,0.0,75,0.00,,,0.00,WUHU216HW,2013-05-09 06:05:00,
2013-05-08 23:10:00,54.0,46.6,29.92,NE,45,0.0,0.0,76,0.00,,,0.00,WUHU216HW,2013-05-09 06:10:00,
2013-05-08 23:15:00,54.0,46.6,29.92,NE,45,0.1,0.4,76,0.00,,,0.00,Cumulus v1.9.2,2013-05-09 06:15:00,
2013-05-08 23:20:00,53.8,46.8,29.92,ENE,68,0.0,0.7,77,0.00,,,0.00,WUHU216HW,2013-05-09 06:20:00,
2013-05-08 23:25:00,53.6,47.0,29.92,East,90,0.4,1.1,78,0.00,,,0.00,WUHU216HW,2013-05-09 06:25:00,
2013-05-08 23:30:00,53.6,47.3,29.92,East,90,0.7,1.1,79,0.00,,,0.00,WUHU216HW,2013-05-09 06:30:00,
2013-05-08 23:35:00,53.6,47.7,29.92,East,90,0.0,1.1,80,0.00,,,0.00,WUHU216HW,2013-05-09 06:35:00,
2013-05-08 23:40:00,53.6,47.7,29.92,East,90,0.0,0.4,80,0.00,,,0.00,WUHU216HW,2013-05-09 06:40:00,
2013-05-08 23:45:00,53.6,48.0,29.92,East,90,0.0,0.0,81,0.00,,,0.00,WUHU216HW,2013-05-09 06:45:00,
2013-05-08 23:50:00,53.5,47.5,29.93,East,90,0.0,0.0,80,0.00,,,0.00,WUHU216HW,2013-05-09 06:50:00,
2013-05-08 23:55:00,53.3,47.3,29.93,East,90,0.0,0.0,80,0.00,,,0.00,WUHU216HW,2013-05-09 06:55:00,